Date,TemperatureHighF,TemperatureAvgF,TemperatureLowF,DewpointHighF,DewpointAvgF,DewpointLowF,HumidityHigh,HumidityAvg,HumidityLow,PressureMaxIn,PressureMinIn,WindSpeedMaxMPH,WindSpeedAvgMPH,GustSpeedMaxMPH,PrecipitationSumIn
2013-11-1,54.0,43.0,31.6,33.0,28.4,26.0,83,58,37,30.17,30.00,16,2,20,0.00
2013-11-2,57.2,46.9,40.7,34.0,29.9,24.0,64,53,35,30.08,29.48,29,7,32,0.00
2013-11-3,42.1,35.9,27.0,29.0,21.9,17.0,91,60,43,30.00,29.61,14,4,20,0.00
2013-11-4,35.8,26.7,21.3,27.0,22.3,18.0,91,84,68,30.19,30.00,12,1,13,0.03
2013-11-5,39.8,33.4,21.8,27.0,18.8,14.0,85,57,38,30.20,30.10,25,5,31,0.00
2013-11-6,45.5,39.5,32.6,28.0,24.5,21.0,69,56,42,30.32,30.10,15,2,21,0.00
2013-11-7,53.6,45.0,36.2,40.0,31.1,25.0,79,59,47,30.30,29.61,16,6,27,0.11
2013-11-8,46.2,42.8,39.6,30.0,26.7,22.0,61,53,48,30.09,29.70,10,3,22,0.00
2013-11-9,45.8,41.0,34.9,26.0,23.8,22.0,61,51,43,30.19,30.09,18,4,22,0.00
2013-11-10,41.6,33.9,27.2,29.0,26.2,24.0,87,74,56,30.34,30.10,8,2,14,0.02
2013-11-11,44.9,34.0,26.2,36.0,28.3,23.0,89,80,65,30.50,30.35,18,2,22,0.00
2013-11-12,57.5,50.5,39.6,35.0,31.7,27.0,78,51,32,30.43,30.14,17,6,25,0.00
2013-11-13,54.3,49.6,42.7,37.0,30.4,24.0,56,48,32,30.14,30.05,17,3,26,0.00
2013-11-14,49.9,43.5,38.5,27.0,25.3,23.0,57,49,40,30.07,29.68,10,2,20,0.00
2013-11-15,45.5,40.3,38.7,24.0,22.0,20.0,52,48,41,29.67,29.34,15,5,26,0.00
2013-11-16,43.8,34.5,19.4,28.0,23.0,15.0,85,64,41,29.62,29.20,20,6,26,0.00
2013-11-17,41.7,32.5,17.4,26.0,20.3,14.0,89,63,42,30.01,29.62,13,3,28,0.00
2013-11-18,54.1,45.1,38.2,22.0,19.7,16.0,49,37,26,29.93,29.66,21,6,30,0.00
2013-11-19,55.3,44.4,13.9,34.0,24.2,8.0,78,48,32,29.80,29.46,21,7,27,0.00
2013-11-20,13.7,8.4,1.4,9.0,1.9,-4.0,85,75,61,30.63,29.80,18,5,20,0.00
2013-11-21,24.3,17.2,2.3,11.0,6.7,-3.0,80,64,53,30.80,30.62,20,8,29,0.00
2013-11-22,34.2,28.1,22.8,11.0,8.9,7.0,57,45,36,30.75,30.65,20,11,30,0.00
2013-11-23,37.4,32.6,27.8,16.0,13.0,10.0,52,45,38,30.66,30.24,27,15,35,0.00
2013-11-24,45.5,37.9,31.4,24.0,17.3,15.0,68,44,32,30.30,30.10,27,13,32,0.00
2013-11-25,46.4,34.1,19.2,26.0,21.6,16.0,90,63,42,30.42,30.31,17,5,20,0.00
2013-11-26,48.7,43.0,35.9,26.0,24.5,23.0,61,49,40,30.41,30.05,20,8,27,0.00
2013-11-27,51.6,41.0,22.8,27.0,23.7,19.0,87,53,34,30.11,30.01,16,3,22,0.00
2013-11-28,48.0,39.1,20.9,26.0,23.1,17.0,91,56,39,30.13,30.03,25,8,33,0.00
2013-11-29,50.9,45.7,40.2,29.0,24.0,22.0,55,43,34,30.10,30.00,26,8,30,0.00
2013-11-30,51.5,45.0,40.5,32.0,30.2,29.0,65,57,47,30.11,30.05,11,2,19,0.00